Voyager — C6WC2 — position and weather

sailwx.info

Track history (hours):
 
Tides and Currents Weather Stations Pressure Air Temp Water Temp Dewpoint Dewpoint Depression Visibility Wind Speed Wind Dir Waves Ship Positions

Voyager

Last reported at 2014-Aug-31 08:29 UTC. Time now 2014-Aug-31 10:31 UTC.
Position N 48°42' W 002°06'.

Length 151 m; draft 6 m.

Type: Passenger vessel. MMSI: 309695000.

Date/timePositionNaut miles runAvg speedWind from/ knotsBaromVisibWave heightAir tempDewpointWater temp
2014-Aug-31 08:29N 48°42' W 002°06'14012.3
2014-Aug-30 21:05N 50°32' E 000°06'816.1
2014-Aug-30 20:33N 50°34' E 000°19'1716.9
2014-Aug-30 19:34N 50°40' E 000°44'3316.4
2014-Aug-30 17:34N 51°02' E 001°24'1514.5
2014-Aug-30 16:34N 51°10' E 001°42'1414.2
2014-Aug-30 15:33N 51°22' E 001°55'1413.6
2014-Aug-30 14:32N 51°21' E 002°17'1414.8
2014-Aug-30 13:33N 51°23' E 002°40'1110.5
2014-Aug-30 12:33N 51°16' E 002°53'3 2.7
2014-Aug-30 11:33N 51°14' E 002°56'0 0.0
2014-Aug-30 10:33N 51°14' E 002°56'0 0.0
2014-Aug-30 09:33N 51°14' E 002°56'0 0.0
2014-Aug-30 08:33N 51°14' E 002°56'0 0.0
2014-Aug-30 07:33N 51°14' E 002°56'0 0.0
2014-Aug-30 06:33N 51°14' E 002°56'0 0.3
2014-Aug-30 05:34N 51°14' E 002°55'10 9.8
2014-Aug-30 04:33N 51°22' E 002°46'1110.2
2014-Aug-30 03:31N 51°32' E 002°43'2510.9
2014-Aug-30 01:13N 51°57' E 002°37'  
2014-Aug-22 19:34N 59°26' E 005°14'1211.0
2014-Aug-22 18:29N 59°15' E 005°20'910.1
2014-Aug-22 17:33N 59°07' E 005°29'1010.1
2014-Aug-22 16:33N 58°59' E 005°43'1 1.0
2014-Aug-22 15:34N 58°58' E 005°44'0 0.0
2014-Aug-22 14:33N 58°58' E 005°44'0 0.0
2014-Aug-22 13:34N 58°58' E 005°44'0 0.0
2014-Aug-22 12:33N 58°58' E 005°44'0 0.0
2014-Aug-22 11:34N 58°58' E 005°44'0 0.0
2014-Aug-22 10:34N 58°58' E 005°44'0 0.0
2014-Aug-22 09:33N 58°58' E 005°44'0 0.0
2014-Aug-22 08:34N 58°58' E 005°44'0 0.0
2014-Aug-22 07:30N 58°58' E 005°44'0 0.0
2014-Aug-22 06:33N 58°58' E 005°44'7 6.9
2014-Aug-22 05:33N 59°03' E 005°34'1312.8
2014-Aug-22 04:33N 58°50' E 005°29'8 7.9
2014-Aug-22 03:33N 58°44' E 005°19'3511.5
2014-Aug-22 00:32N 58°10' E 005°08'  
Track history (hours):
 
Tides and Currents Weather Stations Pressure Air Temp Water Temp Dewpoint Dewpoint Depression Visibility Wind Speed Wind Dir Waves Ship Positions

Voyager

Last reported at 2014-Aug-31 08:29 UTC. Time now 2014-Aug-31 10:31 UTC.
Position N 48°42' W 002°06'.

Length 151 m; draft 6 m.

Type: Passenger vessel. MMSI: 309695000.

Date/timePositionNaut miles runAvg speedWind from/ knotsBaromVisibWave heightAir tempDewpointWater temp
2014-Aug-31 08:29N 48°42' W 002°06'14012.3
2014-Aug-30 21:05N 50°32' E 000°06'816.1
2014-Aug-30 20:33N 50°34' E 000°19'1716.9
2014-Aug-30 19:34N 50°40' E 000°44'3316.4
2014-Aug-30 17:34N 51°02' E 001°24'1514.5
2014-Aug-30 16:34N 51°10' E 001°42'1414.2
2014-Aug-30 15:33N 51°22' E 001°55'1413.6
2014-Aug-30 14:32N 51°21' E 002°17'1414.8
2014-Aug-30 13:33N 51°23' E 002°40'1110.5
2014-Aug-30 12:33N 51°16' E 002°53'3 2.7
2014-Aug-30 11:33N 51°14' E 002°56'0 0.0
2014-Aug-30 10:33N 51°14' E 002°56'0 0.0
2014-Aug-30 09:33N 51°14' E 002°56'0 0.0
2014-Aug-30 08:33N 51°14' E 002°56'0 0.0
2014-Aug-30 07:33N 51°14' E 002°56'0 0.0
2014-Aug-30 06:33N 51°14' E 002°56'0 0.3
2014-Aug-30 05:34N 51°14' E 002°55'10 9.8
2014-Aug-30 04:33N 51°22' E 002°46'1110.2
2014-Aug-30 03:31N 51°32' E 002°43'2510.9
2014-Aug-30 01:13N 51°57' E 002°37'  
2014-Aug-22 19:34N 59°26' E 005°14'1211.0
2014-Aug-22 18:29N 59°15' E 005°20'910.1
2014-Aug-22 17:33N 59°07' E 005°29'1010.1
2014-Aug-22 16:33N 58°59' E 005°43'1 1.0
2014-Aug-22 15:34N 58°58' E 005°44'0 0.0
2014-Aug-22 14:33N 58°58' E 005°44'0 0.0
2014-Aug-22 13:34N 58°58' E 005°44'0 0.0
2014-Aug-22 12:33N 58°58' E 005°44'0 0.0
2014-Aug-22 11:34N 58°58' E 005°44'0 0.0
2014-Aug-22 10:34N 58°58' E 005°44'0 0.0
2014-Aug-22 09:33N 58°58' E 005°44'0 0.0
2014-Aug-22 08:34N 58°58' E 005°44'0 0.0
2014-Aug-22 07:30N 58°58' E 005°44'0 0.0
2014-Aug-22 06:33N 58°58' E 005°44'7 6.9
2014-Aug-22 05:33N 59°03' E 005°34'1312.8
2014-Aug-22 04:33N 58°50' E 005°29'8 7.9
2014-Aug-22 03:33N 58°44' E 005°19'3511.5
2014-Aug-22 00:32N 58°10' E 005°08'  

Dump ship's entire track history